• In Uzbekistan
  • List of Countries
  • For 7 days
  • Water Temperature
  • Satellite Maps
  • Weather Map
  • Weather Widgets
  • user-avatar
    Login

    Hourly Weather Abovyan

    Today, 20 August, Sunday

    Time Temperature Precipitation Wind Pressure Humidity
    00:00 +22°C° 0 mm 3 mps 673 mmHg 58%
    01:00 +22°C° 0 mm 3 mps 673 mmHg 59%
    02:00 +21°C° 0 mm 3 mps 673 mmHg 60%
    03:00 +21°C° 0 mm 2 mps 673 mmHg 61%
    04:00 +20°C° 0 mm 2 mps 673 mmHg 61%
    05:00 +20°C° 0 mm 2 mps 673 mmHg 61%
    06:00 +20°C° 0 mm 2 mps 673 mmHg 61%
    07:00 +23°C° 0 mm 2 mps 673 mmHg 54%
    08:00 +26°C° 0 mm 2 mps 674 mmHg 47%
    09:00 +28°C° 0 mm 2 mps 674 mmHg 40%
    10:00 +29°C° 0 mm 2 mps 674 mmHg 36%
    11:00 +31°C° 0 mm 2 mps 674 mmHg 33%
    12:00 +33°C° 0 mm 3 mps 673 mmHg 29%
    13:00 +34°C° 0 mm 3 mps 673 mmHg 28%
    14:00 +34°C° 0 mm 3 mps 673 mmHg 26%
    15:00 +35°C° 0 mm 3 mps 672 mmHg 25%
    16:00 +34°C° 0 mm 3 mps 672 mmHg 28%
    17:00 +33°C° 0 mm 3 mps 672 mmHg 32%
    18:00 +31°C° 0 mm 3 mps 672 mmHg 35%
    19:00 +29°C° 0 mm 3 mps 672 mmHg 40%
    20:00 +27°C° 0 mm 3 mps 672 mmHg 45%
    21:00 +25°C° 0 mm 3 mps 672 mmHg 50%
    22:00 +24°C° 0 mm 3 mps 672 mmHg 50%
    23:00 +24°C° 0 mm 3 mps 672 mmHg 51%

    Tomorrow, 21 August, Monday

    Time Temperature Precipitation Wind Pressure Humidity
    00:00 +22°C° 0 mm 3 mps 672 mmHg 51%
    01:00 +21°C° 0 mm 2 mps 672 mmHg 51%
    02:00 +21°C° 0 mm 2 mps 672 mmHg 52%
    03:00 +20°C° 0 mm 2 mps 672 mmHg 52%
    04:00 +20°C° 0 mm 2 mps 672 mmHg 53%
    05:00 +20°C° 0 mm 2 mps 672 mmHg 54%
    06:00 +20°C° 0 mm 2 mps 672 mmHg 54%
    07:00 +24°C° 0 mm 2 mps 672 mmHg 48%
    08:00 +26°C° 0 mm 2 mps 672 mmHg 42%
    09:00 +28°C° 0 mm 2 mps 672 mmHg 36%
    10:00 +30°C° 0 mm 2 mps 672 mmHg 33%
    11:00 +31°C° 0 mm 2 mps 672 mmHg 30%
    12:00 +34°C° 0 mm 2 mps 672 mmHg 27%
    13:00 +34°C° 0 mm 2 mps 672 mmHg 25%
    14:00 +35°C° 0 mm 3 mps 671 mmHg 24%
    15:00 +35°C° 0 mm 3 mps 671 mmHg 23%
    16:00 +34°C° 0 mm 2 mps 671 mmHg 26%
    17:00 +32°C° 0 mm 2 mps 670 mmHg 29%
    18:00 +31°C° 0 mm 1 mps 670 mmHg 33%
    19:00 +29°C° 0 mm 2 mps 670 mmHg 37%
    20:00 +27°C° 0 mm 2 mps 670 mmHg 41%
    21:00 +25°C° 0 mm 3 mps 670 mmHg 45%
    22:00 +25°C° 0 mm 2 mps 670 mmHg 47%
    23:00 +24°C° 0 mm 2 mps 670 mmHg 49%

    Day after tomorrow, 22 August, Tuesday

    Time Temperature Precipitation Wind Pressure Humidity
    00:00 +24°C° 0 mm 2 mps 670 mmHg 51%
    01:00 +23°C° 0 mm 2 mps 670 mmHg 52%
    02:00 +23°C° 0 mm 2 mps 670 mmHg 52%
    03:00 +22°C° 0 mm 1 mps 670 mmHg 53%
    04:00 +22°C° 0 mm 1 mps 670 mmHg 52%
    05:00 +22°C° 0 mm 1 mps 670 mmHg 51%
    06:00 +22°C° 0 mm 1 mps 670 mmHg 50%
    07:00 +25°C° 0 mm 1 mps 671 mmHg 43%
    08:00 +28°C° 0 mm 1 mps 671 mmHg 36%
    09:00 +30°C° 0 mm 2 mps 671 mmHg 29%
    10:00 +32°C° 0 mm 2 mps 671 mmHg 27%
    11:00 +34°C° 0 mm 2 mps 671 mmHg 24%
    12:00 +35°C° 0 mm 3 mps 671 mmHg 22%
    13:00 +36°C° 0 mm 3 mps 671 mmHg 21%
    14:00 +36°C° 0 mm 3 mps 670 mmHg 20%
    15:00 +37°C° 0 mm 3 mps 670 mmHg 19%
    16:00 +36°C° 0 mm 2 mps 670 mmHg 23%
    17:00 +34°C° 0 mm 2 mps 670 mmHg 27%
    18:00 +32°C° 0 mm 2 mps 669 mmHg 31%
    19:00 +30°C° 0 mm 2 mps 670 mmHg 35%
    20:00 +28°C° 0 mm 2 mps 670 mmHg 40%
    21:00 +26°C° 0 mm 3 mps 670 mmHg 45%
    22:00 +25°C° 0 mm 3 mps 670 mmHg 46%
    23:00 +25°C° 0 mm 3 mps 670 mmHg 47%

    23 August, Wednesday

    Time Temperature Precipitation Wind Pressure Humidity
    00:00 +24°C° 0 mm 3 mps 670 mmHg 48%
    01:00 +24°C° 0 mm 3 mps 670 mmHg 49%
    02:00 +22°C° 0 mm 3 mps 670 mmHg 49%
    03:00 +23°C° 0 mm 2 mps 670 mmHg 49%
    04:00 +21°C° 0 mm 2 mps 670 mmHg 49%
    05:00 +21°C° 0 mm 2 mps 670 mmHg 50%
    06:00 +21°C° 0 mm 2 mps 671 mmHg 50%
    07:00 +25°C° 0 mm 2 mps 671 mmHg 44%
    08:00 +27°C° 0 mm 2 mps 672 mmHg 38%
    09:00 +30°C° 0 mm 2 mps 672 mmHg 32%
    10:00 +31°C° 0 mm 2 mps 672 mmHg 29%
    11:00 +34°C° 0 mm 2 mps 672 mmHg 26%
    12:00 +35°C° 0 mm 2 mps 672 mmHg 23%
    13:00 +36°C° 0 mm 2 mps 672 mmHg 22%
    14:00 +36°C° 0 mm 2 mps 672 mmHg 22%
    15:00 +37°C° 0 mm 2 mps 672 mmHg 21%
    16:00 +36°C° 0 mm 3 mps 672 mmHg 25%
    17:00 +34°C° 0 mm 3 mps 672 mmHg 28%
    18:00 +33°C° 0 mm 3 mps 672 mmHg 32%
    19:00 +30°C° 0 mm 3 mps 672 mmHg 36%
    20:00 +28°C° 0 mm 4 mps 672 mmHg 39%
    21:00 +26°C° 0 mm 4 mps 673 mmHg 42%
    22:00 +25°C° 0 mm 4 mps 673 mmHg 43%
    23:00 +24°C° 0 mm 3 mps 673 mmHg 44%

    24 August, Thursday

    Time Temperature Precipitation Wind Pressure Humidity
    00:00 +22°C° 0 mm 3 mps 673 mmHg 44%
    01:00 +22°C° 0 mm 3 mps 673 mmHg 46%
    02:00 +21°C° 0 mm 3 mps 673 mmHg 48%
    03:00 +21°C° 0 mm 3 mps 673 mmHg 50%
    04:00 +20°C° 0 mm 3 mps 673 mmHg 52%
    05:00 +20°C° 0 mm 2 mps 673 mmHg 53%
    06:00 +20°C° 0 mm 2 mps 673 mmHg 55%
    07:00 +24°C° 0 mm 2 mps 674 mmHg 48%
    08:00 +26°C° 0 mm 2 mps 674 mmHg 42%
    09:00 +29°C° 0 mm 2 mps 674 mmHg 36%
    10:00 +30°C° 0 mm 2 mps 674 mmHg 32%
    11:00 +32°C° 0 mm 2 mps 674 mmHg 29%
    12:00 +34°C° 0 mm 2 mps 674 mmHg 25%
    13:00 +35°C° 0 mm 2 mps 674 mmHg 25%
    14:00 +35°C° 0 mm 2 mps 674 mmHg 24%
    15:00 +36°C° 0 mm 3 mps 674 mmHg 23%
    16:00 +35°C° 0 mm 3 mps 673 mmHg 26%
    17:00 +33°C° 0 mm 3 mps 673 mmHg 30%
    18:00 +31°C° 0 mm 3 mps 673 mmHg 33%
    19:00 +29°C° 0 mm 3 mps 674 mmHg 35%
    20:00 +27°C° 0 mm 3 mps 674 mmHg 38%
    21:00 +25°C° 0 mm 4 mps 674 mmHg 41%
    22:00 +24°C° 0 mm 3 mps 674 mmHg 41%
    23:00 +24°C° 0 mm 3 mps 674 mmHg 41%

    25 August, Friday

    Time Temperature Precipitation Wind Pressure Humidity
    00:00 +22°C° 0 mm 3 mps 674 mmHg 41%
    01:00 +21°C° 0 mm 3 mps 674 mmHg 42%
    02:00 +21°C° 0 mm 3 mps 674 mmHg 44%
    03:00 +20°C° 0 mm 3 mps 674 mmHg 45%
    04:00 +20°C° 0 mm 3 mps 674 mmHg 46%
    05:00 +20°C° 0 mm 3 mps 674 mmHg 47%
    06:00 +19°C° 0 mm 3 mps 674 mmHg 49%
    07:00 +23°C° 0 mm 2 mps 675 mmHg 43%
    08:00 +25°C° 0 mm 2 mps 675 mmHg 38%
    09:00 +28°C° 0 mm 2 mps 675 mmHg 32%
    10:00 +29°C° 0 mm 2 mps 675 mmHg 30%
    11:00 +31°C° 0 mm 2 mps 675 mmHg 27%
    12:00 +32°C° 0 mm 2 mps 675 mmHg 25%
    13:00 +34°C° 0 mm 2 mps 674 mmHg 24%
    14:00 +34°C° 0 mm 2 mps 674 mmHg 24%
    15:00 +35°C° 0 mm 3 mps 674 mmHg 23%
    16:00 +33°C° 0 mm 3 mps 673 mmHg 26%
    17:00 +32°C° 0 mm 4 mps 673 mmHg 28%
    18:00 +30°C° 0 mm 4 mps 673 mmHg 31%
    19:00 +28°C° 0 mm 4 mps 673 mmHg 32%
    20:00 +26°C° 0 mm 4 mps 673 mmHg 34%
    21:00 +24°C° 0 mm 3 mps 673 mmHg 36%
    22:00 +22°C° 0 mm 3 mps 673 mmHg 36%
    23:00 +21°C° 0 mm 3 mps 673 mmHg 35%
    Show more